#timestamp,LO_Frequency,Hit 
1504526415.5,286046989.3,N
1504526435.3,286046991.3,N
1504526455.2,286046992.8,N
1504526475.9,286046994.0,N
1504526495.7,286046991.3,N
1504526515.7,286046992.3,N
1504526535.5,286046996.4,N
1504526555.4,286046994.2,N
1504526575.2,286046994.0,N
1504526595.0,286046993.7,N
1504526595.9,286046993.7,N
1504526615.8,286046999.3,N
1504526635.6,286046999.3,N
1504526655.4,286047002.7,N
1504526675.2,286047000.7,N
1504526695.1,286046998.4,N
1504526696.0,286046998.4,N
1504526715.8,286046998.7,N
1504526735.6,286047000.8,N
1504526755.5,286046995.4,N
1504526775.3,286046997.3,N
1504526795.1,286046996.0,N
1504526815.9,286046992.5,N
1504526835.7,286046991.8,N
1504526855.5,286046992.1,N
1504526875.4,286046995.7,N
1504526895.2,286046994.2,N
1504526915.0,286046991.8,N
1504526915.9,286046991.8,N
1504526935.8,286046994.5,N
1504526955.6,286046993.4,N
1504526975.4,286046996.3,N
1504526995.3,286046996.1,N
1504527015.1,286046997.8,N
1504527016.0,286046997.8,N
1504527035.8,286046993.5,N
1504527055.7,286046992.2,N
1504527075.5,286046992.4,N
1504527095.3,286046994.5,N
1504527115.2,286046990.1,P
1504527135.9,286046996.0,N
1504527155.7,286046995.2,N
1504527175.6,286046996.7,N
1504527195.4,286046995.0,N
1504527215.2,286046997.8,N
1504527235.1,286046997.9,N
1504527255.8,286046996.7,N
1504527275.6,286047002.8,N
1504527295.5,286047000.4,N
1504527315.3,286047001.5,N
1504527335.1,286047007.6,N
1504527355.9,286047003.2,N
1504527375.7,286047001.9,N
1504527395.5,286046999.2,N
1504527415.4,286046998.3,N
1504527435.2,286046997.2,N
1504527455.0,286046996.4,N
1504527455.9,286046996.4,N
1504527475.8,286046997.6,N
1504527495.6,286046994.4,N
1504527515.4,286046995.1,N
1504527535.3,286046992.2,N
1504527555.1,286046993.6,N
1504527556.0,286046993.6,N
1504527575.8,286046993.3,N
1504527595.7,286046994.9,N
1504527615.5,286046998.1,N
1504527635.3,286046996.8,N
1504527655.1,286046995.5,N
1504527675.9,286046993.7,N
1504527695.7,286046995.5,N
1504527715.5,286046997.7,N
1504527735.5,286047000.4,N
1504527755.3,286046998.8,N
1504527775.1,286047002.0,N
1504527795.9,286046999.3,N
1504527815.7,286046998.4,N
1504527835.5,286046996.8,N
1504527855.4,286046996.5,N
1504527875.2,286047002.2,N
1504527895.0,286047000.0,N
1504527895.9,286047000.0,N
1504527915.8,286047002.0,N
1504527935.6,286047002.7,N
1504527955.4,286047002.5,N
1504527975.3,286047001.2,N
1504527995.1,286047000.4,N
1504527996.0,286047000.4,N
1504528015.8,286047000.0,N
1504528035.7,286046998.7,N
1504528055.5,286046999.5,N
1504528075.3,286046993.3,N
1504528095.2,286046994.4,N
1504528115.9,286046995.6,N
1504528135.7,286046995.7,N
1504528155.6,286046997.2,N
1504528175.4,286046995.5,N
1504528195.2,286046996.1,N
1504528215.0,286046997.0,N
1504528216.0,286046997.0,N
1504528235.8,286046997.1,N
1504528255.6,286046998.0,N
1504528275.4,286046995.6,N
1504528295.3,286046995.3,N
1504528315.1,286047000.2,N
1504528335.8,286046997.8,N
1504528355.7,286046998.4,N
1504528375.5,286046995.8,N
1504528395.3,286046993.3,N
1504528415.2,286046994.4,N
1504528435.9,286046996.9,N
1504528455.7,286046997.1,N
1504528475.6,286047001.2,N
1504528495.4,286046997.7,N
1504528515.2,286046995.5,N
1504528535.1,286046996.7,N
1504528536.0,286046996.7,N
1504528555.8,286046997.6,N
1504528575.6,286046993.5,P
1504528595.5,286046998.9,N
1504528615.3,286047000.4,N
1504528635.1,286047002.0,N
1504528655.9,286047000.8,N
1504528675.7,286047001.9,N
1504528695.5,286047000.3,N
1504528715.4,286046996.8,N
1504528735.2,286046995.9,N
1504528755.0,286046994.0,N
1504528755.9,286046994.0,N
1504528775.8,286047001.2,N
1504528795.6,286046998.2,N
1504528815.4,286047001.3,N
1504528835.2,286046999.9,N
1504528855.1,286046998.2,N
1504528856.0,286046998.2,N
1504528875.8,286047001.2,N
1504528895.6,286047002.3,N
1504528915.5,286047005.4,N
1504528935.3,286047005.6,N
1504528955.1,286047001.5,N
1504528975.9,286047002.4,N
1504528995.7,286047003.0,N
1504529015.5,286047004.8,N
1504529035.4,286047003.4,N
1504529055.2,286047002.0,N
1504529075.0,286047000.8,N
1504529075.9,286047000.8,N
1504529095.8,286047000.5,N
1504529115.6,286046999.2,N
1504529135.4,286046993.3,N
1504529155.3,286046997.7,N
1504529175.1,286046993.7,N
1504529176.0,286046993.7,N
1504529195.8,286046994.2,N
1504529215.7,286046995.7,N
1504529235.5,286046997.3,N
1504529255.3,286046997.2,N
1504529275.2,286046996.0,N
1504529295.9,286046996.1,N
1504529315.7,286046990.3,N
1504529335.5,286046990.4,N
1504529355.4,286046993.8,N
1504529375.2,286046993.6,N
1504529395.0,286046996.4,N
1504529395.9,286046996.4,N
1504529415.8,286046995.6,N
1504529435.6,286046997.1,N
1504529455.4,286046996.9,N
1504529475.3,286046994.0,N
1504529495.1,286046991.8,N
1504529515.8,286046993.3,N
1504529535.7,286046997.8,N
1504529555.5,286046996.3,N
1504529575.3,286046994.6,N
1504529595.2,286046991.9,N
1504529615.9,286046994.2,N
1504529635.7,286046991.8,P
1504529655.6,286046999.3,N
1504529675.4,286046999.0,N
1504529695.2,286046998.1,N
1504529715.1,286047002.0,N
1504529716.0,286047002.0,N
1504529735.8,286047002.5,N
1504529755.0,286047000.8,N
1504529755.9,286047000.8,N
1504529775.7,286046997.0,N
1504529795.6,286047000.7,N
1504529815.4,286047003.5,N
1504529835.2,286047002.3,N
1504529855.1,286047000.9,N
1504529856.0,286047000.9,N
1504529875.8,286047004.1,N
1504529895.6,286047001.3,N
1504529915.5,286046998.5,N
1504529935.3,286046998.7,N
1504529955.1,286047002.0,N
1504529975.9,286046998.1,N
1504529995.7,286046999.1,N
